Time,TemperatureF,DewpointF,PressureIn,WindDirection,WindDirectionDegrees,WindSpeedMPH,WindSpeedGustMPH,Humidity,HourlyPrecipIn,Conditions,Clouds,dailyrainin,SoftwareType,DateUTC
2013-02-20 00:02:00,9.0,-99.9,-100.00,SSE,149,10.0,12.0,-999,-99.99,,,-99.99,,2013-02-20 07:02:00,
2013-02-20 00:11:00,9.0,-99.9,-100.00,SSE,149,10.0,12.0,-999,-99.99,,,-99.99,,2013-02-20 07:11:00,
2013-02-20 00:22:00,9.0,-99.9,-100.00,SSE,149,9.0,11.0,-999,-99.99,,,-99.99,,2013-02-20 07:22:00,
2013-02-20 00:32:00,9.0,-99.9,-100.00,SSE,149,9.0,11.0,-999,-99.99,,,-99.99,,2013-02-20 07:32:00,
2013-02-20 00:42:00,9.0,-99.9,-100.00,SSE,149,9.0,11.0,-999,-99.99,,,-99.99,,2013-02-20 07:42:00,
2013-02-20 00:52:00,9.0,-99.9,-100.00,ESE,122,6.0,9.0,-999,-99.99,,,-99.99,,2013-02-20 07:52:00,
2013-02-20 01:05:00,9.0,-99.9,-100.00,SE,135,4.0,7.0,-999,-99.99,,,-99.99,,2013-02-20 08:05:00,
2013-02-20 01:11:00,9.0,-99.9,-100.00,SE,135,4.0,7.0,-999,-99.99,,,-99.99,,2013-02-20 08:11:00,
2013-02-20 01:22:00,10.0,-99.9,-100.00,ESE,121,5.0,8.0,-999,-99.99,,,-99.99,,2013-02-20 08:22:00,
2013-02-20 01:32:00,10.0,-99.9,-100.00,ESE,121,5.0,8.0,-999,-99.99,,,-99.99,,2013-02-20 08:32:00,
2013-02-20 01:42:00,10.0,-99.9,-100.00,ESE,121,5.0,8.0,-999,-99.99,,,-99.99,,2013-02-20 08:42:00,
2013-02-20 01:52:00,10.0,-99.9,-100.00,SE,124,5.0,9.0,-999,-99.99,,,-99.99,,2013-02-20 08:52:00,
2013-02-20 02:02:00,10.0,-99.9,-100.00,SSE,155,10.0,14.0,-999,-99.99,,,-99.99,,2013-02-20 09:02:00,
2013-02-20 02:11:00,10.0,-99.9,-100.00,SSE,155,10.0,14.0,-999,-99.99,,,-99.99,,2013-02-20 09:11:00,
2013-02-20 02:22:00,10.0,-99.9,-100.00,SSE,154,9.0,12.0,-999,-99.99,,,-99.99,,2013-02-20 09:22:00,
2013-02-20 02:32:00,10.0,-99.9,-100.00,SE,126,6.0,8.0,-999,-99.99,,,-99.99,,2013-02-20 09:32:00,
2013-02-20 02:42:00,10.0,-99.9,-100.00,SE,126,6.0,8.0,-999,-99.99,,,-99.99,,2013-02-20 09:42:00,
2013-02-20 02:52:00,10.0,-99.9,-100.00,SE,126,6.0,8.0,-999,-99.99,,,-99.99,,2013-02-20 09:52:00,
2013-02-20 03:01:00,10.0,-99.9,-100.00,SE,124,4.0,7.0,-999,-99.99,,,-99.99,,2013-02-20 10:01:00,
2013-02-20 03:12:00,10.0,-99.9,-100.00,SE,124,4.0,7.0,-999,-99.99,,,-99.99,,2013-02-20 10:12:00,
2013-02-20 03:22:00,10.0,-99.9,-100.00,SSE,160,8.0,11.0,-999,-99.99,,,-99.99,,2013-02-20 10:22:00,
2013-02-20 03:32:00,10.0,-99.9,-100.00,South,175,9.0,14.0,-999,-99.99,,,-99.99,,2013-02-20 10:32:00,
2013-02-20 03:42:00,10.0,-99.9,-100.00,South,175,9.0,14.0,-999,-99.99,,,-99.99,,2013-02-20 10:42:00,
2013-02-20 03:52:00,10.0,-99.9,-100.00,South,186,12.0,14.0,-999,-99.99,,,-99.99,,2013-02-20 10:52:00,
2013-02-20 04:02:00,9.0,-99.9,-100.00,South,188,13.0,16.0,-999,-99.99,,,-99.99,,2013-02-20 11:02:00,
2013-02-20 04:11:00,9.0,-99.9,-100.00,South,188,13.0,16.0,-999,-99.99,,,-99.99,,2013-02-20 11:11:00,
2013-02-20 04:22:00,9.0,-99.9,-100.00,South,187,12.0,16.0,-999,-99.99,,,-99.99,,2013-02-20 11:22:00,
2013-02-20 04:32:00,10.0,-99.9,-100.00,SSW,197,9.0,11.0,-999,-99.99,,,-99.99,,2013-02-20 11:32:00,
2013-02-20 04:42:00,10.0,-99.9,-100.00,SSW,197,9.0,11.0,-999,-99.99,,,-99.99,,2013-02-20 11:42:00,
2013-02-20 04:52:00,10.0,-99.9,-100.00,SSW,200,8.0,11.0,-999,-99.99,,,-99.99,,2013-02-20 11:52:00,
2013-02-20 05:02:00,10.0,-99.9,-100.00,SSW,193,8.0,11.0,-999,-99.99,,,-99.99,,2013-02-20 12:02:00,
2013-02-20 05:12:00,10.0,-99.9,-100.00,SSW,193,8.0,11.0,-999,-99.99,,,-99.99,,2013-02-20 12:12:00,
2013-02-20 05:22:00,10.0,-99.9,-100.00,SSW,201,8.0,11.0,-999,-99.99,,,-99.99,,2013-02-20 12:22:00,
2013-02-20 05:32:00,10.0,-99.9,-100.00,SSW,205,6.0,8.0,-999,-99.99,,,-99.99,,2013-02-20 12:32:00,
2013-02-20 05:42:00,10.0,-99.9,-100.00,SSW,205,6.0,8.0,-999,-99.99,,,-99.99,,2013-02-20 12:42:00,
2013-02-20 05:53:00,10.0,-99.9,-100.00,SSW,207,6.0,8.0,-999,-99.99,,,-99.99,,2013-02-20 12:53:00,
2013-02-20 06:02:00,10.0,-99.9,-100.00,SSW,211,5.0,7.0,-999,-99.99,,,-99.99,,2013-02-20 13:02:00,
2013-02-20 06:12:00,10.0,-99.9,-100.00,SSW,211,5.0,7.0,-999,-99.99,,,-99.99,,2013-02-20 13:12:00,
2013-02-20 06:22:00,10.0,-99.9,-100.00,SSW,198,5.0,7.0,-999,-99.99,,,-99.99,,2013-02-20 13:22:00,
2013-02-20 06:32:00,10.0,-99.9,-100.00,SSW,198,5.0,7.0,-999,-99.99,,,-99.99,,2013-02-20 13:32:00,
2013-02-20 06:42:00,10.0,-99.9,-100.00,SSW,198,5.0,7.0,-999,-99.99,,,-99.99,,2013-02-20 13:42:00,
2013-02-20 07:01:00,10.0,-99.9,-100.00,SSW,211,3.0,4.0,-999,-99.99,,,-99.99,,2013-02-20 14:01:00,
2013-02-20 07:11:00,10.0,-99.9,-100.00,SSW,211,3.0,4.0,-999,-99.99,,,-99.99,,2013-02-20 14:11:00,
2013-02-20 07:22:00,9.0,-99.9,-100.00,SW,214,4.0,5.0,-999,-99.99,,,-99.99,,2013-02-20 14:22:00,
2013-02-20 07:32:00,10.0,-99.9,-100.00,SSW,213,5.0,7.0,-999,-99.99,,,-99.99,,2013-02-20 14:32:00,
2013-02-20 07:42:00,10.0,-99.9,-100.00,SSW,213,5.0,7.0,-999,-99.99,,,-99.99,,2013-02-20 14:42:00,
2013-02-20 07:52:00,10.0,-99.9,-100.00,SW,219,4.0,7.0,-999,-99.99,,,-99.99,,2013-02-20 14:52:00,
2013-02-20 08:02:00,10.0,-99.9,-100.00,SSW,209,6.0,7.0,-999,-99.99,,,-99.99,,2013-02-20 15:02:00,
2013-02-20 08:12:00,10.0,-99.9,-100.00,SSW,209,6.0,7.0,-999,-99.99,,,-99.99,,2013-02-20 15:12:00,
2013-02-20 08:22:00,11.0,-99.9,-100.00,SSW,211,5.0,7.0,-999,-99.99,,,-99.99,,2013-02-20 15:22:00,
2013-02-20 08:32:00,12.0,-99.9,-100.00,SW,216,4.0,5.0,-999,-99.99,,,-99.99,,2013-02-20 15:32:00,
2013-02-20 08:42:00,12.0,-99.9,-100.00,SW,216,4.0,5.0,-999,-99.99,,,-99.99,,2013-02-20 15:42:00,
2013-02-20 08:52:00,12.0,-99.9,-100.00,SW,218,3.0,4.0,-999,-99.99,,,-99.99,,2013-02-20 15:52:00,
2013-02-20 09:01:00,14.0,-99.9,-100.00,SW,217,0.0,2.0,-999,-99.99,,,-99.99,,2013-02-20 16:01:00,
2013-02-20 09:12:00,14.0,-99.9,-100.00,SW,217,0.0,2.0,-999,-99.99,,,-99.99,,2013-02-20 16:12:00,
2013-02-20 09:22:00,16.0,-99.9,-100.00,SW,216,1.0,2.0,-999,-99.99,,,-99.99,,2013-02-20 16:22:00,
2013-02-20 09:32:00,18.0,-99.9,-100.00,SW,218,0.0,2.0,-999,-99.99,,,-99.99,,2013-02-20 16:32:00,
2013-02-20 09:42:00,18.0,-99.9,-100.00,SW,218,0.0,2.0,-999,-99.99,,,-99.99,,2013-02-20 16:42:00,
2013-02-20 09:52:00,18.0,-99.9,-100.00,SE,141,3.0,7.0,-999,-99.99,,,-99.99,,2013-02-20 16:52:00,
2013-02-20 10:01:00,18.0,-99.9,-100.00,East,92,6.0,11.0,-999,-99.99,,,-99.99,,2013-02-20 17:01:00,
2013-02-20 10:12:00,18.0,-99.9,-100.00,East,92,6.0,11.0,-999,-99.99,,,-99.99,,2013-02-20 17:12:00,
2013-02-20 10:22:00,19.0,-99.9,-100.00,East,99,5.0,8.0,-999,-99.99,,,-99.99,,2013-02-20 17:22:00,
2013-02-20 10:32:00,21.0,-99.9,-100.00,ESE,104,6.0,8.0,-999,-99.99,,,-99.99,,2013-02-20 17:32:00,
2013-02-20 10:42:00,21.0,-99.9,-100.00,ESE,104,6.0,8.0,-999,-99.99,,,-99.99,,2013-02-20 17:42:00,
2013-02-20 10:52:00,21.0,-99.9,-100.00,ESE,104,6.0,8.0,-999,-99.99,,,-99.99,,2013-02-20 17:52:00,
2013-02-20 11:02:00,23.0,-99.9,-100.00,SSE,158,5.0,8.0,-999,-99.99,,,-99.99,,2013-02-20 18:02:00,
2013-02-20 11:11:00,23.0,-99.9,-100.00,SSE,158,5.0,8.0,-999,-99.99,,,-99.99,,2013-02-20 18:11:00,
2013-02-20 11:22:00,25.0,-99.9,-100.00,SSW,193,6.0,11.0,-999,-99.99,,,-99.99,,2013-02-20 18:22:00,
2013-02-20 11:32:00,27.0,-99.9,-100.00,South,175,6.0,12.0,-999,-99.99,,,-99.99,,2013-02-20 18:32:00,
2013-02-20 11:42:00,27.0,-99.9,-100.00,South,175,6.0,12.0,-999,-99.99,,,-99.99,,2013-02-20 18:42:00,
2013-02-20 11:52:00,25.0,-99.9,-100.00,South,189,10.0,14.0,-999,-99.99,,,-99.99,,2013-02-20 18:52:00,
2013-02-20 12:02:00,26.0,-99.9,-100.00,SSW,197,8.0,12.0,-999,-99.99,,,-99.99,,2013-02-20 19:02:00,
2013-02-20 12:12:00,26.0,-99.9,-100.00,SSW,197,8.0,12.0,-999,-99.99,,,-99.99,,2013-02-20 19:12:00,
2013-02-20 12:21:00,28.0,-99.9,-100.00,SSW,200,5.0,12.0,-999,-99.99,,,-99.99,,2013-02-20 19:21:00,
2013-02-20 12:32:00,28.0,-99.9,-100.00,South,189,5.0,14.0,-999,-99.99,,,-99.99,,2013-02-20 19:32:00,
2013-02-20 12:42:00,28.0,-99.9,-100.00,South,189,5.0,14.0,-999,-99.99,,,-99.99,,2013-02-20 19:42:00,
2013-02-20 12:52:00,28.0,-99.9,-100.00,SSW,202,6.0,9.0,-999,-99.99,,,-99.99,,2013-02-20 19:52:00,
2013-02-20 13:01:00,31.0,-99.9,-100.00,South,177,5.0,11.0,-999,-99.99,,,-99.99,,2013-02-20 20:01:00,
2013-02-20 13:11:00,31.0,-99.9,-100.00,South,177,5.0,11.0,-999,-99.99,,,-99.99,,2013-02-20 20:11:00,
2013-02-20 13:21:00,30.0,-99.9,-100.00,SSW,193,6.0,9.0,-999,-99.99,,,-99.99,,2013-02-20 20:21:00,
2013-02-20 13:31:00,31.0,-99.9,-100.00,SW,220,4.0,8.0,-999,-99.99,,,-99.99,,2013-02-20 20:31:00,
2013-02-20 13:41:00,31.0,-99.9,-100.00,SW,220,4.0,8.0,-999,-99.99,,,-99.99,,2013-02-20 20:41:00,
2013-02-20 13:52:00,26.0,-99.9,-100.00,WSW,241,7.0,12.0,-999,-99.99,,,-99.99,,2013-02-20 20:52:00,
2013-02-20 14:02:00,22.0,-99.9,-100.00,WSW,255,6.0,8.0,-999,-99.99,,,-99.99,,2013-02-20 21:02:00,
2013-02-20 14:11:00,22.0,-99.9,-100.00,WSW,255,6.0,8.0,-999,-99.99,,,-99.99,,2013-02-20 21:11:00,
2013-02-20 14:21:00,22.0,-99.9,-100.00,WSW,252,6.0,9.0,-999,-99.99,,,-99.99,,2013-02-20 21:21:00,
2013-02-20 14:32:00,22.0,-99.9,-100.00,WSW,257,7.0,9.0,-999,-99.99,,,-99.99,,2013-02-20 21:32:00,
2013-02-20 14:42:00,22.0,-99.9,-100.00,WSW,257,7.0,9.0,-999,-99.99,,,-99.99,,2013-02-20 21:42:00,
2013-02-20 14:52:00,22.0,-99.9,-100.00,WSW,257,7.0,9.0,-999,-99.99,,,-99.99,,2013-02-20 21:52:00,
2013-02-20 15:02:00,19.0,-99.9,-100.00,WNW,302,5.0,8.0,-999,-99.99,,,-99.99,,2013-02-20 22:02:00,
2013-02-20 15:11:00,18.0,-99.9,-100.00,NW,321,5.0,8.0,-999,-99.99,,,-99.99,,2013-02-20 22:11:00,
2013-02-20 15:21:00,18.0,-99.9,-100.00,NW,321,5.0,8.0,-999,-99.99,,,-99.99,,2013-02-20 22:21:00,
2013-02-20 15:32:00,17.0,-99.9,-100.00,WNW,302,5.0,8.0,-999,-99.99,,,-99.99,,2013-02-20 22:32:00,
2013-02-20 15:43:00,17.0,-99.9,-100.00,WNW,302,5.0,8.0,-999,-99.99,,,-99.99,,2013-02-20 22:43:00,
2013-02-20 15:52:00,17.0,-99.9,-100.00,WNW,302,7.0,9.0,-999,-99.99,,,-99.99,,2013-02-20 22:52:00,
2013-02-20 16:01:00,17.0,-99.9,-100.00,NW,309,8.0,12.0,-999,-99.99,,,-99.99,,2013-02-20 23:01:00,
2013-02-20 16:12:00,17.0,-99.9,-100.00,NW,309,8.0,12.0,-999,-99.99,,,-99.99,,2013-02-20 23:12:00,
2013-02-20 16:22:00,16.0,-99.9,-100.00,NW,305,10.0,12.0,-999,-99.99,,,-99.99,,2013-02-20 23:22:00,
2013-02-20 16:32:00,16.0,-99.9,-100.00,WNW,297,10.0,12.0,-999,-99.99,,,-99.99,,2013-02-20 23:32:00,
2013-02-20 16:43:00,16.0,-99.9,-100.00,WNW,297,10.0,12.0,-999,-99.99,,,-99.99,,2013-02-20 23:43:00,
2013-02-20 16:53:00,15.0,-99.9,-100.00,WNW,300,10.0,14.0,-999,-99.99,,,-99.99,,2013-02-20 23:53:00,
2013-02-20 17:03:00,14.0,-99.9,-100.00,WNW,296,12.0,15.0,-999,-99.99,,,-99.99,,2013-02-21 00:03:00,
2013-02-20 17:11:00,14.0,-99.9,-100.00,WNW,296,12.0,15.0,-999,-99.99,,,-99.99,,2013-02-21 00:11:00,
2013-02-20 17:22:00,14.0,-99.9,-100.00,WNW,293,11.0,14.0,-999,-99.99,,,-99.99,,2013-02-21 00:22:00,
2013-02-20 17:32:00,14.0,-99.9,-100.00,NW,305,9.0,15.0,-999,-99.99,,,-99.99,,2013-02-21 00:32:00,
2013-02-20 17:42:00,14.0,-99.9,-100.00,NW,305,9.0,15.0,-999,-99.99,,,-99.99,,2013-02-21 00:42:00,
2013-02-20 17:53:00,14.0,-99.9,-100.00,NW,305,12.0,15.0,-999,-99.99,,,-99.99,,2013-02-21 00:53:00,
2013-02-20 18:01:00,13.0,-99.9,-100.00,NW,310,11.0,14.0,-999,-99.99,,,-99.99,,2013-02-21 01:01:00,
2013-02-20 18:12:00,13.0,-99.9,-100.00,NW,310,11.0,14.0,-999,-99.99,,,-99.99,,2013-02-21 01:12:00,
2013-02-20 18:22:00,13.0,-99.9,-100.00,NW,305,13.0,15.0,-999,-99.99,,,-99.99,,2013-02-21 01:22:00,
2013-02-20 18:32:00,12.0,-99.9,-100.00,NW,312,13.0,15.0,-999,-99.99,,,-99.99,,2013-02-21 01:32:00,
2013-02-20 18:42:00,12.0,-99.9,-100.00,NW,312,13.0,15.0,-999,-99.99,,,-99.99,,2013-02-21 01:42:00,
2013-02-20 18:52:00,12.0,-99.9,-100.00,NW,320,13.0,18.0,-999,-99.99,,,-99.99,,2013-02-21 01:52:00,
2013-02-20 19:02:00,11.0,-99.9,-100.00,NW,316,13.0,18.0,-999,-99.99,,,-99.99,,2013-02-21 02:02:00,
2013-02-20 19:11:00,11.0,-99.9,-100.00,NW,316,13.0,18.0,-999,-99.99,,,-99.99,,2013-02-21 02:11:00,
2013-02-20 19:22:00,11.0,-99.9,-100.00,NW,313,15.0,19.0,-999,-99.99,,,-99.99,,2013-02-21 02:22:00,
2013-02-20 19:32:00,11.0,-99.9,-100.00,WNW,303,15.0,18.0,-999,-99.99,,,-99.99,,2013-02-21 02:32:00,
2013-02-20 19:42:00,11.0,-99.9,-100.00,WNW,303,15.0,18.0,-999,-99.99,,,-99.99,,2013-02-21 02:42:00,
2013-02-20 19:52:00,11.0,-99.9,-100.00,WNW,303,15.0,18.0,-999,-99.99,,,-99.99,,2013-02-21 02:52:00,
2013-02-20 20:02:00,11.0,-99.9,-100.00,WNW,298,15.0,18.0,-999,-99.99,,,-99.99,,2013-02-21 03:02:00,
2013-02-20 20:12:00,11.0,-99.9,-100.00,WNW,298,15.0,18.0,-999,-99.99,,,-99.99,,2013-02-21 03:12:00,
2013-02-20 20:22:00,11.0,-99.9,-100.00,NW,306,15.0,19.0,-999,-99.99,,,-99.99,,2013-02-21 03:22:00,
2013-02-20 20:32:00,10.0,-99.9,-100.00,WNW,299,16.0,19.0,-999,-99.99,,,-99.99,,2013-02-21 03:32:00,
2013-02-20 20:42:00,10.0,-99.9,-100.00,WNW,299,16.0,19.0,-999,-99.99,,,-99.99,,2013-02-21 03:42:00,
2013-02-20 20:52:00,10.0,-99.9,-100.00,WNW,299,17.0,19.0,-999,-99.99,,,-99.99,,2013-02-21 03:52:00,
2013-02-20 21:01:00,10.0,-99.9,-100.00,WNW,303,18.0,21.0,-999,-99.99,,,-99.99,,2013-02-21 04:01:00,
2013-02-20 21:11:00,10.0,-99.9,-100.00,WNW,303,18.0,21.0,-999,-99.99,,,-99.99,,2013-02-21 04:11:00,
2013-02-20 21:22:00,10.0,-99.9,-100.00,NW,306,17.0,21.0,-999,-99.99,,,-99.99,,2013-02-21 04:22:00,
2013-02-20 21:32:00,10.0,-99.9,-100.00,NW,308,16.0,19.0,-999,-99.99,,,-99.99,,2013-02-21 04:32:00,
2013-02-20 21:42:00,10.0,-99.9,-100.00,NW,308,16.0,19.0,-999,-99.99,,,-99.99,,2013-02-21 04:42:00,
2013-02-20 21:52:00,10.0,-99.9,-100.00,WNW,303,17.0,22.0,-999,-99.99,,,-99.99,,2013-02-21 04:52:00,
2013-02-20 22:03:00,9.0,-99.9,-100.00,WNW,301,18.0,21.0,-999,-99.99,,,-99.99,,2013-02-21 05:03:00,
2013-02-20 22:12:00,9.0,-99.9,-100.00,WNW,301,18.0,21.0,-999,-99.99,,,-99.99,,2013-02-21 05:12:00,
2013-02-20 22:22:00,9.0,-99.9,-100.00,WNW,300,18.0,22.0,-999,-99.99,,,-99.99,,2013-02-21 05:22:00,
2013-02-20 22:38:00,9.0,-99.9,-100.00,WNW,299,16.0,18.0,-999,-99.99,,,-99.99,,2013-02-21 05:38:00,
2013-02-20 22:47:00,9.0,-99.9,-100.00,WNW,299,16.0,18.0,-999,-99.99,,,-99.99,,2013-02-21 05:47:00,
2013-02-20 23:02:00,8.0,-99.9,-100.00,WNW,300,14.0,16.0,-999,-99.99,,,-99.99,,2013-02-21 06:02:00,
2013-02-20 23:21:00,8.0,-99.9,-100.00,WNW,301,14.0,16.0,-999,-99.99,,,-99.99,,2013-02-21 06:21:00,
2013-02-20 23:31:00,8.0,-99.9,-100.00,WNW,302,13.0,15.0,-999,-99.99,,,-99.99,,2013-02-21 06:31:00,
2013-02-20 23:42:00,8.0,-99.9,-100.00,WNW,302,13.0,15.0,-999,-99.99,,,-99.99,,2013-02-21 06:42:00,
2013-02-20 23:52:00,8.0,-99.9,-100.00,NW,304,13.0,16.0,-999,-99.99,,,-99.99,,2013-02-21 06:52:00,